Regional Weather Roundup
Issued by NWS

Home | Current Version | Previous Version | Graphics & Text | Print | Product List | Glossary On
Versions: 1 2 3 4 5 6 7 8 9 10 11 12 13 14 15 16 17 18 19 20 21 22 23 24 25 26 27
000
ASUS45 KTFX 270010
RWRMT
MONTANA REGIONAL WEATHER ROUNDUP
NATIONAL WEATHER SERVICE GREAT FALLS MT
600 PM MDT FRI AUG 26 2016

NOTE: "FAIR" INDICATES FEW OR NO CLOUDS BELOW 12000 FEET WITH NO
SIGNIFICANT WEATHER AND/OR OBSTRUCTIONS TO VISIBILITY.

MTZ001>007-043-270100-
WEST OF THE DIVIDE

CITY           SKY/WX    TMP DP  RH WIND       PRES   REMARKS
KALISPELL      MOSUNNY   76  41  28 S9        29.91F
MISSOULA       SUNNY     79  37  22 VRB7      29.93F
BUTTE          CLOUDY    70  30  22 N12       30.04S
MULLAN PASS    SUNNY     66  33  29 VRB6      30.08F
DEER LODGE       N/A     72  32  23 NW13G22   30.02F
EUREKA           N/A     81  37  21 SW3       29.89F
HAMILTON         N/A     73  36  25 CALM      29.95F
LIBBY            N/A     82  36  18 SW3       29.89F
PLAINS           N/A     83  39  20 CALM      29.91F
RONAN            N/A     74  42  31 E2        29.99F
$$

MTZ008-052>055-270100-
SOUTHWEST MONTANA

CITY           SKY/WX    TMP DP  RH WIND       PRES   REMARKS
BOZEMAN        SUNNY     72  32  23 VRB5      29.99F
DILLON         CLOUDY    73  30  20 CALM      29.99F
W YELLOWSTONE  CLOUDY    66  23  19 NW6       30.08S
ENNIS          SUNNY     72  28  20 N8G17     30.05F
THREE FORKS      N/A     76  76 100 N8        29.97F
$$

MTZ009-010-012-014-046-048-049-054-270100-
EAST SLOPES AND CENTRAL MONTANA

CITY           SKY/WX    TMP DP  RH WIND       PRES   REMARKS
CUT BANK       MOSUNNY   71  36  27 VRB3      29.95F
GREAT FALLS    SUNNY     70  39  32 S5        29.96F
HELENA         CLOUDY    74  35  24 NE5       29.96F
CHOTEAU          N/A     70  39  32 CALM      29.98F
CONRAD           N/A     73  44  35 W5        29.99F
$$

MTZ011-013-016-021-045-047-050-051-270100-
NORTH CENTRAL MONTANA

CITY           SKY/WX    TMP DP  RH WIND       PRES   REMARKS
HAVRE          SUNNY     72  40  31 VRB6      29.94F
LEWISTOWN      SUNNY     67  40  37 W5        30.01F
N BAR RANCH      N/A     64  39  39 VRB3      30.04F
CHINOOK          N/A     70  45  40 E5        29.94F
$$

MTZ017>020-022>027-061-062-270100-
NORTHEAST MONTANA

CITY           SKY/WX    TMP DP  RH WIND       PRES   REMARKS
GLASGOW        CLOUDY    69  44  40 W14G20    29.94F
JORDAN           N/A     67  43  41 N6        29.98F
SIDNEY         CLOUDY    71  46  40 NW18      29.93R
WOLF POINT     CLOUDY    68  50  52 SW7       29.95S
POPLAR           N/A     70  45  40 W13       29.95R
SCOBEY           N/A     63  45  51 W5        29.94F
$$

MTZ028>42-056>058-270100-
SOUTHCENTRAL AND SOUTHEAST MONTANA

CITY           SKY/WX    TMP DP  RH WIND       PRES   REMARKS
BAKER          CLOUDY    66  46  48 SE15      29.98F
BILLINGS       MOSUNNY   73  38  27 E10       29.98F
LIVINGSTON     SUNNY     73  33  23 VRB5      29.98F
MILES CITY     PTSUNNY   76  35  22 NW12      29.95S
FORSYTH          N/A     73  37  27 W6        29.96S
LAUREL           N/A     74  38  27 E2        29.97F
ROUNDUP          N/A     67  40  37 N8        29.92F
$$

REGIONAL REPORTS...DAKOTAS

CITY           SKY/WX    TMP DP  RH WIND       PRES   REMARKS
WILLISTON      CLOUDY    71  47  42 NW21G28   29.92S
MINOT          CLOUDY    69  49  48 S21G28    29.93F
DICKINSON      MOSUNNY   66  42  41 S8        29.96F
CROSBY           N/A     66  48  52 W23G30    29.95R
WATFORD CITY     N/A     72  41  33 SW6       29.93S
BISMARCK       CLOUDY    67  52  58 SE15      30.00F
GRAND FORKS    CLOUDY    70  52  52 SW12      30.01S
FARGO          CLOUDY    67  51  56 SW9       30.05F
BUFFALO SD       N/A     67  48  50 S16       29.95R
RAPID CITY     MOSUNNY   66  53  63 S6        30.00R THUNDER
$$

REGIONAL REPORTS...WYOMING/IDAHO/WASHINGTON

CITY           SKY/WX    TMP DP  RH WIND       PRES   REMARKS
GILLETTE       CLOUDY    69  42  37 N13       30.00F
SHERIDAN       CLOUDY    70  44  39 NW3       30.00F
BUFFALO WY     CLOUDY    71  38  29 N6        30.04F
CODY           CLOUDY    61  46  59 N7        30.05F
YELLOWSTONE LA   N/A     62  26  25 MISG      30.16S
IDAHO FALLS    SUNNY     77  32  19 S14       29.99F
SALMON         SUNNY     75  43  31 SW6       29.90F
BOISE          SUNNY     85  31  14 NW9G16    29.92F
SPOKANE        PTSUNNY   84  33  16 W8G16     29.89F
$$

REGIONAL REPORTS...ALBERTA

CITY           SKY/WX    TMP DP  RH WIND       PRES   REMARKS
EDMONTON       MOSUNNY   70  48  46 S8        29.79F
CALGARY        PTSUNNY   66  46  48 SE15      29.87F
LETHBRIDGE     MOSUNNY   72  39  30 S3        29.89F
MEDICINE HAT   MOSUNNY   70  45  40 SW6       29.91F
WATERTON GATE    N/A     68  41  37 SW8         N/A
CARDSTON         N/A     73  39  29 W5          N/A
MILK RIVER       N/A     72  36  26 SW3         N/A
ONEFOUR          N/A     70  39  32 NW8         N/A
$$

REGIONAL REPORTS...SASKATCHEWAN

CITY           SKY/WX    TMP DP  RH WIND       PRES   REMARKS
SWIFT CURRENT  SUNNY     64  41  42 NW9       29.92F
REGINA         PTSUNNY   63  54  72 NW12      29.89F
SASKATOON      MOSUNNY   64  48  55 N7        29.88F
CYPRESS HILLS    N/A     59  45  58 NE3         N/A
VAL MARIE        N/A     66  45  45 W8          N/A
ROCKGLEN         N/A     61  46  59 NW9         N/A
ASSINIBOIA       N/A     70  48  46 S6          N/A
$$




USA.gov is the U.S. government's official web portal to all federal, state and local government web resources and services.